Rockport, TX

3:35 AM CDT on July 27, 2017 (GMT -0500)
Aransas County

Weather History for KRKP - January, 2013

Change the Weather History Date:

Wednesday, January 2, 2013

  Actual Average Record
Temperature  
Mean Temperature 44 °F -  
Max Temperature 48 °F 60 °F 84 °F (2006)
Min Temperature 41 °F 46 °F 19 °F (1979)
Degree Days  
Heating Degree Days 20    
Moisture  
Dew Point 37 °F    
Average Humidity 80    
Maximum Humidity 89    
Minimum Humidity 68    
Precipitation  
Precipitation 0.02 in - - ()
Sea Level Pressure  
Sea Level Pressure 30.26 in    
Wind  
Wind Speed 13 mph (North)    
Max Wind Speed 17 mph    
Max Gust Speed 25 mph    
Visibility 8 miles    
Events Rain    
Averages and records for this station are not official NWS values.
T = Trace of Precipitation, MM = Missing Value Source: NWS Daily Summary

Daily Weather History Graph

Daily Weather History Graph

Search for Another Location

Airport or City:

Trip Planner

Search our weather history database for the weather conditions in past years. The results will help you decide how hot, cold, wet, or windy it might be!

Date:

Astronomy

Jan. 02, 2013 Rise Set
Actual Time 7:20 AM CST 5:44 PM CST
Civil Twilight 6:54 AM CST 6:10 PM CST
Nautical Twilight 6:25 AM CST 6:39 PM CST
Astronomical Twilight 5:56 AM CST 7:08 PM CST
Moon 10:48 PM CST (1/2) 10:29 AM CST (1/2)
Length of Visible Light 11h 16m
Length of Day
10h 24m
Waning Gibbous, 75% of the Moon is Illuminated
Jan 2
Waning Gibbous
Jan 4
Last Quarter
Jan 11
New
Jan 18
First Quarter
Jan 26
Full

Hourly Weather History & Observations

Time (CST) Temp. Windchill Dew Point Humidity Pressure Visibility Wind Dir Wind Speed Gust Speed Precip Events Conditions
12:53 AM 48.0 °F - 41.0 °F 77% 30.17 in 10.0 mi North 17.3 mph 20.7 mph N/A   Scattered Clouds
1:53 AM 48.0 °F - 39.9 °F 74% 30.20 in 10.0 mi North 13.8 mph 25.3 mph N/A   Scattered Clouds
2:53 AM 48.0 °F - 39.0 °F 71% 30.22 in 10.0 mi NNE 13.8 mph 25.3 mph N/A   Mostly Cloudy
3:53 AM 46.9 °F - 37.9 °F 71% 30.21 in 10.0 mi North 17.3 mph 23.0 mph N/A   Partly Cloudy
4:53 AM 46.0 °F 39.9 °F 36.0 °F 68% 30.21 in 10.0 mi North 13.8 mph - N/A   Scattered Clouds
6:53 AM 43.0 °F 35.4 °F 35.1 °F 74% 30.26 in 10.0 mi North 16.1 mph - 0.00 in Rain Light Rain
7:53 AM 42.1 °F 34.2 °F 35.1 °F 76% 30.28 in 9.0 mi North 16.1 mph 23.0 mph 0.00 in Rain Light Rain
8:53 AM 41.0 °F 34.3 °F 35.1 °F 79% 30.28 in 8.0 mi North 11.5 mph - 0.00 in Rain Light Rain
9:53 AM 41.0 °F 33.9 °F 36.0 °F 82% 30.32 in 7.0 mi North 12.7 mph - 0.00 in Rain Light Rain
10:53 AM 42.1 °F 36.1 °F 37.0 °F 82% 30.31 in 6.0 mi North 10.4 mph - 0.00 in Rain Light Rain
11:53 AM 42.1 °F 37.1 °F 37.9 °F 85% 30.29 in 6.0 mi North 8.1 mph - 0.00 in Rain Light Rain
12:42 PM 42.8 °F 37.5 °F 37.4 °F 81% 30.28 in 5.0 mi NNW 9.2 mph - 0.00 in Rain Light Rain
12:53 PM 42.1 °F 36.6 °F 37.9 °F 85% 30.29 in 6.0 mi NNW 9.2 mph - 0.00 in Rain Light Rain
1:53 PM 42.1 °F 36.1 °F 37.9 °F 85% 30.25 in 6.0 mi North 10.4 mph - 0.00 in Rain Light Rain
2:18 PM 42.8 °F 38.0 °F 37.4 °F 81% 30.24 in 5.0 mi North 8.1 mph - 0.00 in Rain Light Rain
3:53 PM 42.1 °F 36.6 °F 37.9 °F 85% 30.24 in 5.0 mi North 9.2 mph - 0.00 in Rain Light Rain
4:53 PM 42.1 °F 35.7 °F 37.9 °F 85% 30.25 in 5.0 mi North 11.5 mph - 0.01 in Rain Light Rain
5:53 PM 42.1 °F 36.6 °F 37.9 °F 85% 30.26 in 7.0 mi North 9.2 mph - 0.00 in Rain Light Rain
6:53 PM 41.0 °F 35.2 °F 37.9 °F 89% 30.30 in 6.0 mi North 9.2 mph - 0.00 in Rain Light Rain
7:53 PM 41.0 °F 36.4 °F 37.9 °F 89% 30.29 in 6.0 mi NNE 6.9 mph - 0.01 in Rain Light Rain
8:53 PM 42.1 °F 36.6 °F 37.9 °F 85% 30.29 in 8.0 mi NNE 9.2 mph - 0.00 in   Mostly Cloudy
9:53 PM 42.1 °F 36.6 °F 37.9 °F 85% 30.31 in 9.0 mi North 9.2 mph - N/A   Overcast
10:53 PM 43.0 °F 36.8 °F 36.0 °F 76% 30.30 in 10.0 mi North 11.5 mph - N/A   Overcast
11:53 PM 43.0 °F 38.2 °F 36.0 °F 76% 30.30 in 10.0 mi North 8.1 mph - N/A   Overcast